Flag for Norway Weather past 2 weeks in Finse, Norway

Now
45 °F

Cool.


Feels Like: 42 °F
Forecast: 39 / 42 °F
Wind: 6 mph from East

Location: Finsevatn

Current Time: Sep 1, 2015 at 4:14:11 PM

Latest Report: Sep 1, 2015 at 3:00 PM


Visibility: N/A

Pressure: 29.90 "Hg (25.76 "Hg at 1221m altitude)

Humidity: 82%

Dew point: 40 °F

Location of FinseLocation

Historic Weather in Finse — Graph

°F

Finse temperature yesterday

Maximum temperature yesterday: 53 °F (at 5:00 PM)
Minimum temperature yesterday: 38 °F (at 7:00 AM)
Average temperature yesterday: 46 °F

Past Weeks' High & Low Weather Summary

 TemperatureHumidityPressure
High60 °F (Aug 23, 6:00 PM)94% (Aug 23, 7:00 AM)30.38 "Hg (Aug 23, 7:00 AM)
Low38 °F (Aug 31, 7:00 AM)42% (Aug 19, 3:00 PM)29.44 "Hg (Aug 27, 1:00 PM)
Average49 °F77%29.99 "Hg
* Reported Aug 17 2:00 PM — Sep 1 2:00 PM, Finse, Weather by CustomWeather, © 2015

Note: Actual official high and low records may vary slightly from our data, if they occured in-between our weather recording intervals... More about our weather records

Advertising

Finse weather history for previous 24 hours

 ConditionsComfort  
Time TempWeatherWind HumidityBarometerVisibility
2:00 PM
Tue, Sep 1
46 °FCool.7 mph82%29.90 "HgN/A
1:00 PM45 °FQuite cool.9 mph80%29.92 "HgN/A
12:00 PM45 °FQuite cool.5 mph81%29.92 "HgN/A
11:00 AM46 °FCool.9 mph80%29.91 "HgN/A
10:00 AM46 °FCool.8 mph80%29.91 "HgN/A
9:00 AM46 °FCool.6 mph81%29.91 "HgN/A
8:00 AM44 °FQuite cool.5 mph87%29.93 "HgN/A
7:00 AM44 °FQuite cool.2 mph86%29.95 "HgN/A
6:00 AM44 °FQuite cool.2 mph86%29.94 "HgN/A
5:00 AM43 °FQuite cool.1 mph87%29.96 "HgN/A
4:00 AM43 °FQuite cool.2 mph86%29.96 "HgN/A
3:00 AM41 °FQuite cool.1 mph92%29.98 "HgN/A
2:00 AM42 °FQuite cool.2 mph89%30.00 "HgN/A
1:00 AM45 °FQuite cool.2 mph82%29.98 "HgN/A
12:00 AM46 °FCool.3 mph77%29.98 "HgN/A
10:00 PM
Mon, Aug 31
47 °FCool.3 mph78%29.98 "HgN/A
9:00 PM48 °FCool.2 mph65%29.96 "HgN/A
8:00 PM50 °FCool.3 mph61%29.94 "HgN/A
7:00 PM50 °FCool.3 mph62%29.94 "HgN/A
6:00 PM51 °FCool.2 mph58%29.94 "HgN/A
5:00 PM53 °FCool.2 mph54%29.94 "HgN/A
4:00 PM52 °FCool.1 mph57%29.95 "HgN/A
Weather by CustomWeather, © 2015

See weather overviewHow to use our weather pages